Theta_e
320 317 317 322 327 328 328 327 327 326 325 323 321 319 321 323 322 321 321 322 322 321 322 322 322 323 323 324 324 325 325 326 326 325 326 327 325 321 318 314 314 313 313 314 314 315 316 314 313 313 315 316 317 318 318 322 325 322 327 328 326 330 329 328 328 322 323 325 321 319 321 322 319 317 315 317 324 325 331 338 335 335 335 331 330 331 335 337
320 320 318 318 322 327 328 327 327 326 325 324 321 319 320 323 324 323 323 323 324 323 323 323 322 323 323 324 325 325 325 326 325 324 326 326 325 324 321 316 314 313 313 314 314 315 315 314 312 312 317 318 317 317 318 322 321 325 330 325 325 333 332 326 322 320 321 321 320 319 320 320 319 317 316 319 323 325 333 336 336 343 337 331 332 333 336 336
319 321 320 317 317 323 327 327 327 327 326 324 322 320 320 323 325 325 324 325 325 324 324 323 323 323 324 324 324 325 325 325 325 325 326 326 326 325 323 319 316 314 313 314 314 313 314 314 311 313 316 315 317 319 321 322 319 327 328 321 326 332 328 322 316 316 319 319 319 318 318 319 319 317 315 320 322 322 331 338 342 347 338 335 334 333 335 335
318 319 321 319 315 317 324 328 327 327 326 325 324 323 321 322 325 326 325 325 324 325 324 323 324 323 324 324 324 325 324 326 328 327 326 326 326 326 325 320 314 314 314 314 315 314 314 313 310 312 314 314 320 321 322 322 319 321 321 323 328 324 322 321 315 315 317 316 317 317 318 318 317 316 315 318 321 320 322 332 343 343 336 336 334 333 334 334
317 319 320 320 316 312 319 326 327 327 327 326 326 325 324 323 324 325 326 325 325 324 323 324 323 323 324 323 324 324 325 330 330 325 326 326 326 326 325 319 313 313 314 314 315 315 314 313 314 315 314 316 320 319 320 321 318 318 320 325 326 318 318 320 317 317 316 315 317 318 318 318 316 315 316 319 320 319 318 322 333 338 334 335 334 333 333 333
315 317 319 320 318 312 313 322 327 327 327 327 327 326 326 324 324 325 326 325 325 325 324 324 324 324 324 323 325 324 326 331 325 322 326 326 326 326 325 322 317 313 314 315 315 316 316 317 322 323 318 316 317 317 319 319 317 317 319 321 320 317 316 318 317 316 316 316 317 318 318 317 317 315 315 317 318 318 317 318 329 335 333 334 334 333 334 333
314 315 318 320 320 316 312 316 324 327 326 327 327 327 327 325 325 325 325 325 325 325 325 324 324 324 324 324 325 324 327 329 320 318 324 324 325 326 325 324 321 316 315 316 317 318 318 318 323 326 323 318 314 316 319 319 317 316 318 318 317 318 316 317 317 315 317 318 317 317 317 317 318 318 314 315 316 318 316 313 325 334 331 333 333 333 333 332
314 314 316 319 320 318 313 312 320 327 326 326 327 327 327 326 325 325 325 325 325 325 325 325 325 324 324 325 325 326 328 327 319 317 321 322 323 324 324 323 321 319 317 317 319 319 318 317 319 323 327 321 312 314 315 316 317 316 317 317 316 317 317 317 316 316 317 317 316 315 317 317 316 316 314 316 315 318 316 312 326 335 331 333 334 334 333 331
314 314 315 318 319 318 315 311 315 325 327 326 327 327 327 326 326 325 325 324 324 325 325 326 325 325 325 324 325 328 327 323 319 319 320 321 322 322 324 322 320 321 319 318 318 317 319 318 316 320 326 322 314 312 312 313 318 317 316 316 316 317 316 315 315 316 316 315 315 316 316 315 313 313 314 317 314 319 317 316 331 335 333 335 333 333 332 331
314 314 314 316 318 318 317 312 312 321 327 327 327 327 327 327 326 325 324 324 324 325 325 326 325 325 325 324 326 330 326 320 320 320 320 321 322 321 321 320 319 320 319 318 318 317 319 318 316 317 321 323 317 312 312 311 314 316 315 314 314 315 315 314 315 314 315 315 314 316 316 314 314 312 315 316 314 322 322 320 332 336 334 335 333 333 332 331
313 314 314 315 317 318 317 313 310 316 325 327 326 327 327 327 326 325 325 324 324 325 325 326 325 325 324 324 328 329 323 319 319 320 320 321 322 319 318 318 318 319 318 317 317 317 317 316 314 315 319 324 321 315 312 309 311 314 317 318 314 314 314 314 315 314 314 314 315 317 315 314 314 313 316 316 315 324 327 324 331 336 335 334 333 333 331 331
312 313 314 314 316 317 317 314 310 313 323 327 326 327 327 327 326 325 324 324 324 324 324 325 325 325 323 325 328 326 321 319 318 320 321 321 320 318 317 318 316 318 318 315 316 317 316 314 312 317 321 324 326 323 314 310 311 312 317 321 315 313 314 314 314 315 314 313 315 317 314 313 314 314 316 315 315 323 328 326 329 333 334 333 333 332 330 330
311 312 314 314 315 316 316 316 311 311 321 327 326 326 327 327 326 325 325 324 324 324 324 324 324 323 324 325 325 323 320 318 317 319 321 319 317 318 318 316 315 317 317 316 316 317 316 313 314 319 319 324 330 325 317 311 311 314 317 318 315 313 315 315 314 315 314 314 316 315 315 317 315 314 314 315 316 321 327 327 326 328 330 331 331 331 331 329
310 311 313 314 315 315 316 316 312 311 318 326 326 326 327 327 326 325 325 324 324 324 323 324 324 322 324 325 322 322 321 318 318 318 319 319 318 320 320 316 315 315 316 316 315 316 316 314 313 317 318 322 326 322 320 314 310 315 316 315 316 315 319 319 313 314 314 313 315 312 314 317 315 315 314 315 315 320 327 326 323 325 326 327 329 329 329 328
310 311 312 314 315 315 316 316 314 311 315 324 327 326 327 327 326 325 325 324 323 323 323 323 323 322 324 324 320 320 320 318 319 318 319 321 320 320 319 316 315 315 314 314 315 315 315 314 315 321 319 317 320 325 329 324 315 315 315 316 317 315 323 324 313 314 316 313 313 311 314 316 315 317 316 314 313 316 321 323 322 323 323 324 327 327 328 327
311 311 311 313 314 316 316 316 315 311 313 323 327 326 327 327 327 326 325 324 323 323 322 323 322 323 326 324 320 320 320 319 319 318 319 321 321 320 318 316 315 314 313 313 315 314 314 316 316 320 320 318 323 329 331 327 320 316 315 319 320 315 319 320 314 314 316 314 312 311 315 317 316 316 314 312 312 314 316 318 319 320 320 321 324 325 326 326
311 311 311 312 313 316 316 316 316 312 314 324 327 326 327 327 326 326 325 324 324 322 322 322 321 323 325 321 321 322 321 320 319 318 318 318 320 318 314 313 313 311 311 313 315 314 314 316 315 316 321 324 324 326 327 322 318 316 314 317 320 316 315 316 315 314 314 314 313 313 315 317 317 315 313 311 311 312 314 314 316 316 317 318 320 323 323 324
311 311 312 311 312 315 316 316 316 313 318 325 326 326 327 327 326 325 324 323 322 321 321 322 321 325 326 319 321 324 321 321 319 317 318 317 317 317 313 311 310 309 311 314 315 315 316 315 315 318 321 322 319 321 326 322 317 315 314 315 316 314 313 315 316 314 313 313 314 314 313 314 316 315 313 312 310 312 313 312 312 313 314 315 316 320 322 323
310 311 312 311 311 314 315 315 315 314 319 325 326 325 326 325 324 322 321 320 320 321 324 322 322 327 326 320 321 323 321 321 319 318 318 317 315 315 313 311 310 310 313 315 315 316 316 315 317 318 319 319 318 318 321 321 315 313 314 314 315 315 314 315 318 316 313 313 314 315 313 314 314 314 314 313 311 311 311 311 311 311 312 312 313 316 320 322
309 311 312 312 311 314 315 315 316 315 320 326 324 323 324 322 321 320 318 319 320 323 324 323 322 322 320 320 321 321 322 321 319 319 318 316 314 312 311 310 310 312 314 316 316 315 315 316 318 319 318 318 316 315 316 316 313 311 311 311 312 315 314 314 318 317 313 313 314 314 313 313 313 314 314 313 312 313 313 313 312 311 311 312 313 314 317 321
308 311 312 312 312 314 315 316 316 316 321 326 322 323 323 321 323 321 318 321 321 319 320 321 321 318 318 320 321 321 322 322 320 319 318 315 313 311 311 311 311 312 313 314 314 313 315 317 317 316 316 315 314 313 313 313 312 311 311 310 311 314 315 315 316 315 313 313 315 314 313 313 313 313 312 312 313 314 314 314 313 312 311 311 313 313 314 317
309 311 312 312 312 313 315 316 317 316 320 323 322 323 322 319 321 319 320 323 320 317 318 321 320 317 317 319 321 322 323 323 321 318 317 314 311 312 312 311 311 312 312 313 313 313 314 316 316 314 314 313 313 313 312 313 314 314 312 311 312 314 316 316 316 315 312 312 317 316 313 312 313 312 311 312 314 314 313 312 313 313 312 311 311 312 313 314
310 312 313 312 311 313 314 315 317 316 317 321 321 322 320 317 317 317 321 323 320 317 318 321 320 316 317 319 320 322 323 324 323 318 315 313 311 312 312 311 312 312 311 311 312 313 314 314 313 313 312 312 313 312 312 313 315 317 315 311 312 315 317 315 314 314 313 313 316 318 316 315 314 313 313 312 313 314 313 312 312 312 313 312 311 311 312 314
311 312 313 312 311 313 314 315 318 317 317 318 319 320 319 316 317 318 321 321 320 318 317 320 320 316 317 319 320 322 324 324 324 319 314 313 313 313 312 311 313 313 311 311 312 312 313 311 311 312 312 312 313 312 312 314 317 317 315 313 313 315 316 316 315 314 313 313 315 316 317 318 317 315 316 315 313 313 312 313 313 313 313 313 312 312 312 314
311 313 314 312 312 313 314 316 318 318 317 318 319 319 317 316 317 318 320 322 322 318 316 318 319 317 316 319 320 321 323 323 323 319 313 313 315 314 313 312 313 313 311 311 312 312 311 310 311 312 312 313 313 312 313 315 317 316 315 314 312 313 316 318 317 315 313 314 317 314 313 322 326 319 315 315 314 313 312 312 313 313 312 312 312 313 313 313
312 313 314 312 312 313 315 317 317 318 318 318 319 317 316 317 317 318 322 323 323 318 316 318 320 319 316 318 319 319 324 324 320 316 313 313 314 312 313 312 312 313 312 311 312 313 312 310 311 312 312 314 313 313 315 315 316 316 317 315 314 315 321 322 318 317 317 317 317 314 313 322 325 319 317 315 313 314 313 313 314 313 312 312 312 312 312 312
312 314 314 312 312 314 317 318 318 318 317 318 318 316 316 317 317 320 324 324 323 319 317 318 320 319 317 318 318 320 326 322 316 315 313 313 313 311 313 312 312 313 312 311 312 314 314 311 312 313 312 313 313 313 314 315 315 316 318 318 318 318 324 326 319 320 323 317 318 320 317 316 316 317 320 314 312 314 313 312 313 312 312 312 311 311 312 312
313 314 314 312 313 314 316 318 318 318 317 317 317 315 316 316 317 321 325 325 323 317 316 318 317 315 318 319 318 320 321 320 320 318 312 312 313 312 313 313 312 313 312 312 314 315 313 312 312 313 312 313 313 313 315 316 315 317 321 321 321 319 324 326 319 320 320 315 320 323 315 313 320 327 325 316 313 316 316 314 314 312 312 312 311 311 311 312
315 314 314 313 314 314 315 318 318 318 317 316 316 315 315 316 318 321 323 324 320 315 317 319 316 315 318 319 318 317 317 319 323 318 313 313 313 311 313 313 312 313 312 312 315 316 313 312 312 311 311 312 312 312 315 315 314 319 325 323 323 326 325 322 321 323 317 314 323 325 315 313 322 331 327 316 314 319 319 318 315 312 311 311 312 312 311 311
315 314 314 313 315 316 316 318 318 317 316 316 315 315 315 317 319 322 323 323 318 316 316 317 315 316 318 319 318 317 318 319 319 315 314 314 313 311 311 312 312 315 315 313 316 318 314 312 314 313 314 314 312 314 316 316 316 320 324 322 321 327 326 326 332 329 316 318 328 329 321 313 316 326 325 317 318 322 320 319 318 315 314 312 312 312 311 312
315 314 314 314 316 318 318 317 317 317 316 315 315 315 317 319 320 323 322 319 318 317 316 315 315 317 319 320 319 318 318 319 316 315 315 313 313 312 310 312 315 317 318 314 316 318 314 313 315 315 318 318 313 315 317 318 318 320 324 322 320 325 327 329 333 325 316 323 330 325 320 314 315 322 324 320 319 319 317 317 319 319 319 315 313 312 311 312
315 315 315 315 317 317 317 316 316 315 315 315 315 317 321 321 320 322 321 318 318 317 316 315 315 317 318 319 318 316 318 318 316 315 315 315 315 313 311 313 314 316 317 315 316 316 315 317 317 314 315 317 315 315 317 318 318 318 322 321 318 322 322 322 324 321 319 323 321 316 316 316 317 318 320 319 318 318 317 314 316 318 319 318 319 319 318 317
315 315 316 316 316 317 316 315 314 315 315 314 316 320 322 322 321 321 318 317 318 316 315 315 314 316 317 317 316 314 315 317 317 317 316 316 316 314 313 314 314 317 318 316 316 315 317 320 318 314 314 315 316 314 315 318 318 316 317 318 318 321 318 318 321 319 319 321 317 313 314 318 319 318 319 317 315 317 315 311 315 318 318 321 327 331 329 326
316 316 317 316 316 317 315 314 314 314 314 315 319 321 322 323 320 318 316 315 315 315 315 314 314 316 316 316 315 313 315 316 317 318 317 316 316 314 313 314 314 318 320 318 316 315 318 319 316 315 316 315 316 316 316 319 318 316 318 319 321 324 321 319 321 321 319 320 317 312 315 321 321 318 320 317 315 316 313 313 318 319 319 322 326 329 330 330
316 316 317 316 316 316 314 313 314 314 314 317 320 320 322 323 318 315 316 314 313 314 316 315 315 316 317 316 314 313 315 315 315 318 317 316 316 315 314 313 312 316 318 317 316 315 316 317 317 317 315 314 317 319 318 317 317 318 320 318 319 323 324 321 321 326 326 321 318 314 318 325 320 315 315 313 314 316 314 315 317 317 320 320 324 330 330 328
317 317 317 316 316 315 313 313 314 314 316 319 320 320 321 320 317 316 315 312 313 314 315 316 316 316 316 315 314 314 314 314 314 316 316 315 315 315 314 313 312 314 315 316 317 317 317 317 317 317 316 314 316 319 319 319 318 316 316 318 318 319 324 321 316 317 318 318 320 316 317 323 317 314 318 315 315 317 315 316 317 319 320 318 324 331 329 328
317 317 316 316 315 314 314 314 314 315 317 319 319 320 320 318 316 316 314 311 313 313 314 316 316 316 316 314 314 315 315 314 313 314 315 314 314 315 314 314 313 313 314 315 316 318 319 318 316 317 318 314 312 315 319 320 318 316 316 318 318 316 321 324 318 314 314 317 322 317 316 320 316 317 325 320 314 316 315 316 316 318 321 318 322 327 326 326
317 316 315 315 314 314 314 314 314 316 318 319 319 320 320 318 315 314 312 311 313 313 315 317 316 316 315 315 314 314 315 315 313 313 314 313 314 314 312 313 314 313 314 315 315 318 321 320 316 315 317 315 312 315 317 315 314 316 317 317 317 317 318 320 319 318 314 315 322 320 317 319 318 321 326 318 314 319 317 317 317 317 319 319 320 322 321 320
316 316 315 314 314 314 314 314 315 316 318 319 319 319 318 315 313 313 311 311 312 314 315 316 316 316 316 315 314 313 314 315 313 313 314 313 314 314 311 313 314 313 314 315 317 317 320 323 319 313 314 315 314 315 316 316 313 314 314 314 315 318 318 318 319 320 319 317 322 319 316 321 322 320 322 318 317 320 317 318 321 320 319 317 319 322 321 319
316 317 315 314 314 314 313 313 315 316 318 319 319 318 316 313 312 312 311 311 312 313 314 315 315 316 316 315 314 313 314 315 313 313 314 313 313 312 311 312 313 314 314 316 319 317 315 321 322 315 312 314 317 318 318 317 314 314 315 314 314 315 318 320 319 321 322 322 323 318 316 326 326 318 318 317 315 315 315 316 320 324 322 317 316 319 323 323
316 316 315 314 313 313 312 313 315 316 317 319 319 316 315 313 311 311 311 312 313 313 314 314 314 315 315 315 314 313 314 315 313 313 314 313 311 313 312 310 312 313 313 315 318 318 316 317 321 318 315 316 319 319 319 318 316 316 316 315 314 314 317 318 317 319 320 320 324 320 315 322 325 317 313 314 315 314 314 314 316 324 327 324 320 318 321 325
316 316 314 314 313 312 314 314 315 316 318 319 317 315 314 313 311 311 312 312 314 314 313 313 314 314 314 314 314 314 314 314 313 313 315 313 312 315 314 311 313 312 313 316 317 319 321 321 322 320 318 319 319 315 314 316 318 316 315 315 314 314 317 316 316 319 317 316 322 321 315 317 322 320 314 312 316 317 316 314 316 325 334 335 332 328 325 326
315 315 313 313 313 313 315 315 314 315 316 316 314 313 314 312 310 312 313 312 314 315 313 313 312 312 313 313 314 314 313 314 313 313 315 314 312 315 314 312 314 313 314 318 316 318 322 322 322 320 317 320 322 317 313 313 315 315 316 316 315 316 322 324 323 322 317 316 317 315 313 313 317 324 320 315 318 322 321 317 318 328 338 336 335 338 337 332
313 314 313 313 313 313 316 316 315 314 315 314 312 314 316 313 310 312 313 313 313 313 313 312 312 312 313 313 313 314 313 314 314 313 315 315 312 315 315 312 314 314 313 316 315 316 319 319 321 321 318 319 322 320 315 313 314 317 318 317 315 316 320 319 319 317 316 320 319 314 315 316 316 321 320 316 316 318 318 316 317 323 329 330 331 335 334 332
313 314 314 313 312 315 317 316 315 314 314 314 313 315 316 313 311 312 313 313 314 313 312 312 312 312 313 313 314 314 313 315 315 314 315 315 313 314 314 312 314 313 312 317 316 315 321 321 319 321 320 318 318 317 317 316 315 318 320 319 316 316 316 316 319 316 314 320 320 314 315 315 313 314 314 314 315 314 314 316 316 318 320 323 327 329 329 332
313 314 314 313 313 315 315 315 316 315 314 314 314 315 315 313 312 312 312 314 316 314 313 314 314 313 313 313 314 314 313 315 316 314 314 314 315 316 314 313 313 312 316 322 317 317 325 322 316 317 317 315 318 320 320 319 316 316 319 319 318 316 316 320 324 319 316 320 318 314 315 314 312 312 313 315 316 316 316 316 316 317 316 315 319 325 328 331
314 313 313 313 314 315 314 315 316 315 314 313 313 314 314 313 313 312 312 315 316 314 313 313 313 313 313 313 314 314 313 315 316 314 314 315 317 316 314 314 313 314 320 321 315 319 325 320 315 317 315 316 324 326 321 318 316 316 317 318 318 317 316 319 319 316 317 320 315 314 317 316 314 315 314 316 318 319 320 319 319 319 318 317 320 326 327 326
313 313 313 313 314 314 313 314 315 314 313 312 312 314 314 314 313 312 313 315 315 313 313 313 313 313 313 313 314 314 313 315 315 314 315 317 318 315 314 314 313 315 319 316 313 318 321 317 315 315 315 316 322 323 319 317 316 315 315 316 316 317 317 316 315 315 317 316 313 317 321 317 316 317 315 317 319 318 318 318 317 318 321 326 327 329 328 327
313 313 312 312 312 313 314 314 314 313 312 312 313 314 314 314 313 313 314 315 314 313 313 313 313 314 314 313 313 313 313 315 314 313 314 316 317 315 315 315 313 313 315 313 314 317 317 317 316 315 314 314 316 318 318 317 317 315 315 315 315 316 316 315 314 314 315 314 313 319 321 316 315 315 315 316 316 315 317 319 318 319 323 328 330 332 333 330
312 313 312 312 312 314 315 313 313 313 312 311 313 314 313 313 313 314 315 314 313 313 314 313 313 313 313 313 314 313 313 314 314 314 314 315 316 316 316 316 314 313 313 312 312 313 314 317 316 315 315 314 315 316 315 315 317 316 316 316 315 315 315 314 314 313 314 314 313 316 317 314 313 314 314 314 312 312 315 318 319 321 322 326 331 336 337 334
303 305 308 312 313 313 315 313 312 312 312 311 313 314 313 313 313 314 315 314 314 314 314 313 313 314 313 314 314 313 313 314 314 314 314 315 316 315 316 316 315 314 313 314 315 314 315 315 314 316 318 315 315 317 316 315 315 315 317 317 315 315 314 314 314 313 314 314 313 315 315 313 313 314 314 313 312 312 313 315 318 319 322 327 331 333 336 336
301 305 310 313 313 312 313 312 311 312 312 311 311 313 314 313 313 314 314 315 316 316 316 315 313 313 313 314 314 314 315 316 314 313 315 314 314 315 315 314 314 314 313 315 317 317 316 316 316 318 319 315 314 317 318 317 315 314 316 315 313 313 314 313 314 314 313 313 314 314 313 314 316 314 313 314 314 315 315 316 317 317 319 324 326 327 332 333
Wind_Speed
22 26 29 31 36 40 40 41 42 42 41 40 38 38 39 38 39 38 37 36 34 33 33 33 31 28 25 21 19 20 17 10 9 9 8 10 10 14 16 14 14 14 11 11 10 6 3 5 10 7 3 3 3 1 1 1 2 2 2 3 2 4 5 5 6 6 4 4 7 7 7 9 6 3 2 3 6 4 5 5 2 5 5 2 4 19 34 33
23 24 27 29 33 37 41 42 42 43 42 41 40 39 39 39 38 38 36 36 34 32 32 32 31 29 26 23 19 20 19 11 6 8 11 14 13 14 17 16 12 11 15 11 12 8 5 4 10 9 4 1 1 0 1 1 2 3 3 3 4 5 5 5 6 5 4 4 6 8 7 8 8 6 4 4 2 3 6 4 4 5 6 5 12 26 33 31
24 25 26 28 32 33 39 44 42 44 45 43 41 41 40 39 38 37 36 35 33 31 31 31 30 28 26 25 20 18 16 8 3 8 16 17 14 17 16 15 13 11 15 14 10 11 7 6 10 6 3 2 1 1 1 1 2 3 3 3 6 5 4 4 5 6 6 4 6 7 6 6 7 6 4 6 6 5 7 4 2 4 4 6 12 23 29 29
23 27 26 26 30 32 34 42 45 44 46 45 43 42 40 40 38 37 37 35 34 32 31 31 30 28 26 24 20 17 11 3 3 8 17 18 15 18 17 15 16 13 15 15 13 10 9 11 9 3 1 2 2 0 2 3 3 2 4 5 6 4 3 5 4 4 4 5 7 5 5 5 5 3 4 9 8 4 7 9 8 10 11 10 10 18 25 25
21 24 28 26 27 32 32 37 45 45 45 46 44 43 42 41 39 38 37 36 35 34 33 32 30 28 26 23 19 18 11 0 4 9 17 19 17 19 20 19 17 15 15 17 15 10 10 12 8 1 2 1 2 1 3 4 2 1 3 5 5 3 3 7 4 2 1 5 6 6 6 6 4 2 5 12 10 6 7 9 9 12 15 15 15 18 21 21
22 22 26 28 26 31 35 33 41 47 45 45 46 44 43 42 40 39 37 37 36 34 34 32 30 28 25 22 21 19 11 3 2 8 19 21 19 22 24 23 19 17 16 17 17 12 9 7 7 3 2 1 1 2 4 3 2 1 3 3 5 4 4 4 2 1 3 7 8 8 6 5 6 3 5 12 11 5 5 9 10 12 18 21 21 19 17 17
22 22 24 28 27 29 35 35 39 48 46 45 47 45 44 43 41 39 37 38 36 35 34 32 31 28 25 24 20 14 8 5 2 6 17 21 22 24 26 25 23 22 19 19 19 11 8 7 3 3 3 1 1 4 5 2 1 2 3 3 5 6 6 3 2 2 5 8 8 5 4 7 10 6 4 9 9 4 4 9 13 15 19 20 18 17 17 19
22 22 22 26 28 28 33 37 37 45 49 46 47 46 45 44 42 41 39 38 36 35 34 32 31 29 28 26 15 5 5 4 4 6 14 22 24 25 27 25 24 25 23 21 19 14 10 11 7 3 1 1 1 4 4 3 1 2 4 4 3 3 5 4 3 3 3 7 4 5 5 7 9 5 5 9 9 5 3 8 11 13 15 15 15 15 16 18
24 23 22 24 29 28 30 36 37 41 49 48 47 48 46 45 44 42 40 39 38 36 34 33 31 30 29 22 9 4 6 4 6 9 14 23 25 25 26 23 24 24 21 20 21 18 10 9 8 5 4 2 3 5 4 3 0 2 3 3 3 3 4 2 3 4 1 4 5 7 5 4 4 2 3 9 8 4 5 9 11 12 13 13 13 14 15 15
27 25 24 24 27 29 28 35 39 38 46 50 47 48 47 46 46 43 42 40 38 36 34 34 31 29 25 15 7 5 7 8 10 10 13 21 24 23 22 20 22 23 19 15 18 19 9 8 11 8 6 3 2 5 4 3 2 5 3 5 7 5 3 0 2 5 1 2 6 9 5 4 3 1 4 7 6 5 8 10 11 13 13 13 12 12 16 17
29 28 27 25 26 28 28 33 40 38 43 51 48 49 48 47 47 45 44 41 39 37 34 33 32 30 22 11 7 6 7 12 12 10 15 22 25 24 21 20 21 23 21 12 14 19 12 14 18 10 4 3 1 4 4 3 6 6 3 6 8 5 4 1 2 5 2 1 5 9 3 4 4 1 7 6 5 6 9 11 11 13 13 13 13 11 13 16
30 30 29 27 26 28 27 31 40 41 42 51 51 49 49 47 48 47 45 43 40 39 36 34 33 30 18 6 6 5 8 15 14 14 20 23 24 22 19 20 20 21 21 14 13 18 14 20 19 7 3 4 2 2 3 5 6 3 4 3 8 7 5 5 3 2 1 2 4 8 3 4 4 7 8 4 6 6 8 11 11 12 11 10 11 9 10 14
31 31 30 29 28 28 29 31 38 41 40 49 52 50 51 48 48 48 45 44 41 40 39 35 33 27 15 3 5 8 11 17 17 16 21 23 22 19 16 20 19 17 18 17 18 18 14 20 17 5 3 5 2 2 3 6 4 2 3 2 5 6 5 6 3 2 2 2 2 5 3 5 10 12 7 3 8 8 7 9 10 10 9 8 9 8 9 12
32 33 32 31 30 28 30 32 36 39 38 45 53 51 52 50 49 49 46 43 42 41 39 35 31 22 11 3 4 12 16 18 17 17 20 23 22 15 13 18 18 15 14 16 18 16 15 20 16 7 2 3 1 2 5 5 3 3 1 1 2 3 5 6 2 5 5 2 1 4 4 6 10 11 7 5 8 10 9 8 9 9 8 8 8 9 9 11
33 34 33 33 32 30 31 33 35 38 37 43 53 51 51 50 49 49 46 45 43 42 38 33 29 18 5 2 5 15 19 18 16 17 20 24 24 15 14 19 17 15 12 16 19 17 20 21 13 6 1 2 4 2 3 4 4 2 2 2 2 4 5 7 2 7 7 1 2 5 4 7 8 9 7 6 8 10 10 9 9 9 9 9 8 9 9 9
34 34 35 35 34 32 32 33 35 38 37 42 51 50 51 50 49 49 46 45 43 42 36 26 25 17 3 2 8 16 16 15 19 20 18 22 24 16 16 18 14 13 10 15 21 19 20 16 6 3 2 3 5 4 4 4 4 2 3 3 2 4 3 5 3 5 6 3 1 3 3 5 5 6 6 5 10 10 9 9 9 9 9 9 8 9 9 8
37 36 36 36 37 35 33 33 35 37 36 41 49 47 49 47 46 47 45 45 44 43 36 25 25 15 2 4 11 14 11 13 23 23 16 18 20 17 17 13 10 12 10 16 20 14 11 7 2 2 2 3 5 6 4 3 5 4 3 4 4 3 4 3 3 3 3 4 4 4 4 6 6 5 4 4 10 10 11 10 10 9 8 8 8 8 8 9
39 39 38 37 39 37 34 33 35 36 36 43 48 45 47 47 47 45 43 44 38 35 27 20 23 11 5 8 9 12 15 18 26 25 18 15 15 17 16 9 9 12 12 11 10 6 3 2 3 3 2 4 5 7 9 7 7 6 4 5 4 4 4 4 3 3 6 4 5 6 6 10 10 7 5 4 7 9 11 10 8 9 8 8 8 8 8 9
41 41 41 39 40 40 36 34 36 37 39 43 46 45 43 39 36 35 36 36 23 16 12 13 17 6 4 13 10 13 21 23 25 22 20 17 15 15 13 10 10 12 10 6 4 4 4 3 4 5 6 9 8 10 8 2 3 3 2 1 4 5 5 5 4 5 7 6 6 8 8 11 13 10 6 5 5 7 7 5 6 8 8 7 7 8 9 10
44 44 44 42 42 42 38 37 37 38 42 46 44 34 25 19 14 11 16 21 16 7 6 15 17 3 7 13 14 19 22 21 18 15 21 21 17 13 9 8 9 7 8 7 5 5 6 6 6 7 9 10 10 10 6 4 4 4 6 4 5 6 5 5 4 5 4 6 7 9 10 12 13 10 7 5 3 5 7 7 8 7 7 8 9 10 11 11
47 46 47 45 45 44 41 40 39 38 41 49 46 20 10 15 9 9 12 13 15 4 2 19 17 4 8 15 21 26 16 11 10 12 23 22 17 13 7 8 9 6 8 9 7 4 6 7 7 6 7 9 10 10 8 9 7 5 6 5 6 5 6 6 3 4 1 4 6 6 8 12 11 10 6 4 4 7 10 10 10 9 9 8 9 12 12 11
50 49 51 50 48 46 43 40 41 43 37 39 38 15 11 14 8 20 21 9 8 1 2 18 11 5 10 16 25 30 13 6 9 12 23 22 15 12 7 8 10 7 8 9 7 4 4 7 9 8 7 10 11 11 11 10 8 7 6 5 6 4 4 5 3 2 1 2 5 3 6 11 11 10 6 5 7 8 10 11 11 11 10 9 11 12 11 10
53 52 55 53 51 48 44 42 43 45 37 27 23 16 17 14 11 28 22 7 6 0 3 17 10 7 12 10 18 26 14 10 11 10 20 21 12 9 9 10 10 9 9 10 9 8 5 6 12 13 10 12 13 12 12 9 7 7 6 4 6 3 2 4 3 2 1 1 2 2 4 7 8 7 7 7 8 8 8 10 9 9 10 12 12 11 11 12
56 57 58 57 55 49 45 45 42 41 40 33 24 22 24 22 27 35 16 6 6 2 2 13 10 9 11 11 19 21 11 9 10 11 18 18 8 5 9 10 10 9 10 11 11 9 6 6 14 17 14 14 14 13 12 8 6 8 8 6 6 5 5 5 2 2 1 2 2 4 2 5 6 6 8 7 7 8 8 7 8 8 10 10 7 8 11 13
60 60 61 61 56 52 49 43 38 40 41 34 26 24 28 31 35 31 13 5 4 1 2 8 3 4 10 16 20 16 10 7 6 11 16 16 11 6 6 7 7 9 12 12 10 8 7 8 14 16 14 14 12 11 11 8 6 7 8 9 10 10 7 4 2 4 3 3 2 3 0 6 5 5 9 7 5 9 7 7 10 10 10 9 7 9 11 11
64 63 64 64 57 57 46 26 31 44 35 25 25 26 32 36 33 25 11 3 3 2 7 9 5 9 14 12 13 11 12 8 5 13 18 18 16 8 6 7 4 8 12 10 6 4 6 8 14 16 14 14 11 9 9 9 6 5 6 9 10 8 5 5 5 4 3 4 3 2 5 5 6 4 9 7 6 10 7 7 10 10 9 9 10 12 11 10
68 67 68 66 61 57 34 14 32 41 23 22 31 33 38 38 28 21 9 2 5 5 7 8 5 14 17 11 13 12 9 8 7 11 18 20 17 7 6 9 6 8 8 6 5 3 6 10 13 15 14 12 10 8 9 10 7 5 5 6 7 7 7 7 7 4 2 3 2 3 4 3 5 5 7 3 4 10 9 9 11 9 10 11 11 12 11 11
70 70 70 66 63 61 41 27 34 29 24 34 40 39 43 36 22 15 6 4 6 5 6 7 5 14 13 7 13 8 5 14 10 8 14 19 16 5 5 10 8 10 9 8 8 2 6 12 14 16 13 9 9 8 9 10 7 7 7 5 5 6 5 6 7 4 0 1 2 3 2 3 5 6 5 1 4 8 10 11 12 12 13 13 13 13 12 12
70 70 70 67 63 63 54 41 35 32 38 48 46 45 44 31 16 7 2 4 3 2 6 7 6 11 11 8 11 6 7 12 8 6 9 14 11 1 3 9 6 9 9 7 8 2 2 10 13 15 12 8 10 10 11 11 7 6 6 5 2 2 3 3 5 4 2 1 4 6 3 3 5 6 4 1 3 7 9 9 10 12 13 13 13 13 13 11
70 68 69 68 57 54 48 36 39 46 48 54 53 50 39 20 10 6 5 4 3 2 6 6 6 13 18 15 9 7 11 8 4 9 7 6 6 2 2 3 3 5 5 4 6 3 2 0 4 8 7 7 10 9 8 11 8 5 7 5 4 4 4 3 2 3 2 3 6 7 4 3 4 6 4 4 5 6 7 7 7 8 10 11 12 12 11 10
69 67 71 66 52 49 34 18 36 53 53 59 57 45 27 8 4 7 6 3 3 4 6 7 9 15 22 20 11 10 13 7 8 15 10 6 8 5 3 3 3 3 4 5 5 2 4 2 2 2 2 3 7 5 2 3 6 6 5 4 3 1 2 3 3 2 3 5 6 5 2 3 4 5 5 6 6 6 7 7 9 9 9 9 9 9 9 8
67 68 72 63 55 51 29 19 45 60 60 64 49 26 13 6 4 5 4 3 4 6 8 11 14 17 22 21 13 12 12 8 11 17 15 11 11 12 10 8 8 7 7 9 6 0 1 1 2 0 1 3 7 7 1 1 4 6 4 5 5 1 0 2 3 1 4 5 4 2 2 3 5 7 8 9 10 10 9 8 9 9 8 8 8 9 7 6
67 69 69 61 56 47 34 41 58 63 65 59 33 11 10 9 6 4 6 4 5 7 10 14 18 20 22 19 12 11 11 9 14 17 15 13 11 11 10 7 9 8 5 7 6 4 2 4 3 2 1 2 7 8 5 2 4 6 6 6 6 3 4 5 4 1 3 4 3 2 2 3 3 6 11 14 15 13 8 7 9 8 8 8 7 7 6 5
67 67 62 57 53 43 42 55 61 61 58 40 18 11 14 11 3 6 8 5 5 9 11 13 18 19 17 13 12 12 9 7 14 16 12 10 9 9 9 10 12 6 4 6 6 7 8 4 3 5 2 3 7 7 7 8 6 6 5 6 5 4 5 5 3 3 4 3 3 2 1 4 3 4 9 11 12 11 5 5 7 8 8 6 5 6 5 6
66 62 56 49 43 42 50 59 62 60 42 20 12 13 14 9 3 6 9 6 7 9 10 12 16 17 12 7 10 10 4 5 13 13 11 12 11 13 13 14 16 9 7 8 5 6 10 5 2 1 1 4 7 4 4 9 7 4 3 5 5 6 5 2 2 5 4 1 2 2 3 4 4 6 9 6 7 9 7 6 5 7 8 5 4 6 5 6
59 51 45 38 33 44 56 57 62 56 29 11 12 10 8 7 5 6 8 10 12 14 15 13 12 15 12 5 8 9 2 5 13 10 9 12 13 15 15 12 13 12 10 9 4 4 8 2 4 2 2 1 5 4 2 5 6 2 3 5 5 4 7 4 2 1 3 2 3 2 3 4 3 7 10 5 6 8 7 6 5 7 7 5 5 6 6 6
45 34 27 26 33 50 59 57 57 46 21 10 11 8 6 7 9 11 11 13 16 17 18 13 9 12 13 8 8 11 7 7 11 9 8 10 9 14 16 11 11 14 11 8 3 3 6 2 3 1 2 2 1 3 1 1 4 5 5 7 3 3 3 3 2 0 1 4 4 0 4 4 1 3 7 6 7 9 8 7 6 6 6 5 7 7 7 8
31 25 14 21 40 52 59 61 51 28 12 10 9 8 7 6 11 13 12 14 16 16 15 11 8 10 12 12 11 14 14 11 11 10 9 9 7 12 18 13 10 13 11 8 5 3 5 3 2 1 3 3 2 3 1 3 0 4 5 4 4 4 3 2 3 3 3 5 4 2 3 3 4 4 4 5 7 8 9 7 6 7 7 7 8 8 8 8
22 16 4 22 48 54 59 58 36 14 9 12 9 7 7 6 10 12 15 19 16 15 14 10 10 10 10 13 14 16 16 13 15 12 9 10 7 11 21 14 7 12 11 8 6 4 4 4 2 2 1 1 2 2 6 2 2 2 1 2 1 3 5 3 3 4 3 4 3 3 3 3 6 6 5 8 9 8 8 7 6 9 9 8 8 8 8 7
13 9 3 29 52 54 57 45 20 10 10 11 10 8 9 9 11 14 19 22 16 10 12 13 13 12 12 13 11 13 12 11 15 12 7 10 5 6 17 15 10 12 10 6 6 4 3 4 3 1 1 2 2 3 7 7 4 3 4 5 4 1 2 2 2 3 3 4 3 2 4 5 6 6 8 11 10 9 9 7 7 8 7 8 8 7 7 7
10 7 4 35 56 52 44 23 8 10 8 10 13 10 11 10 11 17 20 20 14 4 6 14 16 14 14 14 11 11 10 8 12 10 4 8 7 3 11 14 12 13 10 6 6 5 3 3 5 3 1 4 4 3 5 7 6 6 6 8 8 4 4 4 5 2 2 3 5 4 6 8 6 5 9 11 10 10 9 7 7 8 7 7 7 7 7 7
9 7 7 40 62 49 29 9 5 10 7 9 11 10 11 8 10 18 19 17 13 4 4 11 13 12 12 12 13 13 11 8 12 11 4 7 9 4 7 11 13 13 10 5 4 4 3 5 5 2 4 5 5 2 3 3 2 3 4 4 6 4 5 7 7 3 2 3 3 3 6 8 5 8 10 10 10 9 6 6 6 8 7 6 6 6 6 6
6 6 15 46 64 43 17 8 8 8 6 7 9 10 10 8 11 17 17 16 13 6 6 8 10 12 9 8 10 12 11 7 10 10 3 4 6 4 9 15 15 13 9 4 5 4 3 5 4 1 2 3 5 3 2 2 1 2 4 2 3 4 4 5 5 4 4 4 4 2 7 5 5 8 9 9 8 7 4 5 7 7 5 5 5 5 4 5
6 5 10 36 55 39 14 10 12 9 8 9 10 9 4 5 12 16 17 18 12 9 10 10 11 13 11 11 13 15 15 8 7 8 3 4 5 4 12 19 17 15 10 6 8 6 2 3 4 4 2 2 3 3 3 3 2 3 3 2 4 4 5 3 2 3 3 6 7 6 8 5 2 2 4 4 4 5 6 5 6 6 5 5 5 5 4 4
8 4 5 16 29 25 10 8 11 11 13 15 15 12 7 7 11 15 19 15 9 11 13 9 11 12 11 13 13 15 16 9 6 7 3 4 5 2 11 20 19 17 12 8 10 7 4 5 5 6 6 7 7 6 6 5 3 2 2 4 6 6 6 4 3 3 7 6 7 10 10 3 3 2 3 3 2 4 7 6 5 6 6 5 5 5 4 3
8 3 6 7 9 12 5 3 9 11 13 16 13 10 12 11 8 12 18 11 5 10 10 7 11 10 10 15 13 12 15 7 4 8 7 8 6 2 8 18 19 17 13 14 15 8 4 4 7 10 11 11 9 6 5 10 8 8 8 7 7 8 7 5 4 6 7 4 7 13 7 2 1 2 5 6 6 6 7 6 6 6 5 5 5 5 4 3
7 3 9 7 5 9 3 2 10 10 12 16 10 8 14 14 10 10 10 5 6 12 9 7 13 12 12 17 13 12 15 7 3 9 11 9 5 2 3 9 13 14 13 14 14 8 5 5 10 13 11 8 6 5 8 13 14 14 12 11 10 9 8 7 9 11 7 5 10 9 7 6 6 6 8 9 8 7 7 7 7 6 4 4 4 2 3 4
5 4 10 7 5 10 7 8 15 13 14 16 7 7 13 15 16 13 6 3 9 15 10 7 14 18 20 20 15 12 13 8 4 9 9 6 5 5 4 1 4 6 9 11 9 6 6 7 8 9 6 3 4 7 10 12 11 11 14 16 14 12 13 15 19 15 10 9 12 6 11 12 9 7 10 10 9 8 7 6 4 3 3 2 2 2 3 5
4 4 8 4 3 8 8 14 21 19 19 16 7 7 13 17 19 13 5 6 10 13 13 13 16 21 23 21 15 13 14 12 9 9 8 8 9 8 6 3 1 0 5 8 6 3 5 6 4 7 4 2 3 7 10 11 8 8 13 17 16 16 19 22 24 18 14 18 15 5 8 12 8 9 11 8 5 4 2 1 2 2 4 2 3 4 5 6
4 4 8 4 3 5 7 11 17 16 15 14 9 9 14 18 20 11 5 10 15 13 14 20 21 21 22 22 17 17 19 18 15 12 9 10 9 7 6 5 3 3 4 6 4 1 3 4 2 7 4 2 2 5 5 6 7 8 11 13 15 20 23 24 22 14 11 18 15 7 12 13 6 9 10 7 2 4 1 2 3 5 5 4 5 6 7 8
1 1 5 6 6 8 10 11 13 12 12 11 10 11 14 19 20 13 3 5 13 14 13 19 22 17 17 19 18 19 19 17 18 19 18 17 14 9 6 6 7 8 5 5 4 2 3 2 1 6 5 5 2 6 5 5 5 4 8 15 20 21 19 17 13 9 12 18 13 9 14 11 6 8 8 6 4 5 6 8 7 8 6 6 7 8 8 9
0 0 3 5 6 7 10 11 11 12 12 11 10 8 11 16 17 15 7 2 4 10 11 16 18 13 12 17 18 16 15 14 15 15 14 14 13 9 8 11 16 15 10 7 5 3 7 6 2 6 7 5 2 8 8 7 5 4 11 17 21 18 13 10 9 13 18 15 10 12 13 5 5 7 7 6 7 9 10 10 8 8 7 6 7 8 9 9
Wind_Direction
247 251 241 224 215 212 208 205 203 201 201 200 199 198 198 198 197 198 197 197 199 199 198 200 201 200 196 191 187 185 187 190 192 187 184 194 181 167 165 152 160 168 143 116 116 140 108 23 340 1 50 60 67 329 286 211 93 81 136 133 191 190 201 188 181 197 179 208 210 204 180 149 160 182 174 60 48 78 79 34 18 7 17 153 155 149 158 165
240 248 249 236 221 214 209 206 203 201 201 200 199 198 198 197 196 196 195 195 197 199 198 198 201 201 199 194 189 188 191 197 194 205 205 196 193 180 170 158 152 170 175 143 108 111 69 15 318 345 34 23 35 184 241 243 137 144 142 150 213 202 212 198 179 198 200 215 202 189 178 167 173 165 148 134 159 142 104 27 9 49 40 78 128 144 154 164
238 240 249 245 233 221 210 206 204 202 200 200 199 198 197 196 196 194 193 193 194 195 195 195 196 194 195 190 187 188 182 180 191 226 216 198 197 195 180 168 159 154 172 173 125 101 70 358 304 314 31 341 314 166 199 242 199 173 136 179 235 210 237 243 189 206 222 203 182 189 178 181 187 159 147 149 167 182 157 166 142 139 137 121 136 146 155 165
242 239 243 248 241 232 216 205 204 203 200 199 199 197 196 196 195 194 193 192 191 193 193 192 192 189 189 185 184 183 158 143 230 218 214 198 191 199 194 175 164 152 143 156 157 117 58 9 321 258 65 310 306 66 197 235 206 181 152 189 235 192 230 260 210 228 233 183 177 177 141 172 202 161 149 138 144 225 214 196 181 168 161 149 150 153 158 167
246 241 239 244 244 237 228 210 204 203 200 198 198 197 196 196 195 194 192 190 191 191 191 190 189 187 184 181 182 170 136 66 230 195 206 200 192 198 198 183 167 160 139 139 152 116 55 12 350 123 115 282 316 4 225 249 163 160 209 198 227 167 213 259 236 228 173 142 150 149 156 173 175 149 156 154 168 218 212 200 186 164 158 158 159 159 164 170
248 246 238 239 244 238 233 222 208 203 202 199 198 197 195 195 194 193 191 188 189 189 187 186 183 181 180 183 180 166 154 207 182 163 189 192 193 195 197 194 176 162 145 134 137 111 78 31 4 44 73 168 282 281 243 270 120 191 269 221 234 214 225 267 253 225 110 126 159 171 186 148 142 195 179 175 193 212 185 175 173 168 164 161 159 161 168 174
248 248 242 235 240 240 234 232 216 203 203 201 197 196 194 194 192 191 189 187 188 186 183 182 180 180 179 175 169 166 186 216 142 156 178 181 189 192 192 191 181 173 160 145 138 123 118 117 82 50 14 230 213 271 265 299 116 186 265 259 250 227 227 246 246 278 111 158 192 157 143 151 173 193 159 194 219 235 197 164 164 168 161 157 159 167 175 178
248 247 246 237 235 240 235 234 224 204 201 201 196 193 193 192 190 189 188 187 187 183 180 179 178 179 175 165 154 164 215 210 162 167 174 179 185 185 185 181 178 179 175 172 160 145 138 135 148 121 56 262 339 309 305 342 84 187 238 254 268 231 242 258 256 298 112 173 187 117 158 190 192 175 149 210 230 237 182 147 156 157 154 161 169 176 179 182
249 246 246 241 234 238 237 233 231 212 200 200 197 193 193 191 189 188 187 186 185 182 179 178 175 174 171 161 143 173 194 173 152 161 168 178 181 179 183 179 178 180 175 181 172 157 150 137 155 148 135 216 329 324 333 21 0 246 258 271 278 255 259 280 255 272 139 160 140 145 198 232 215 187 199 220 214 196 125 135 154 153 161 173 177 181 181 184
246 246 244 244 237 236 238 230 232 223 203 200 198 193 193 190 188 187 186 185 184 183 180 178 173 168 167 157 150 190 183 153 146 158 169 176 178 175 180 177 177 177 166 171 168 161 160 138 143 134 130 155 320 312 328 61 310 286 327 321 287 273 270 166 235 263 285 128 157 162 199 260 287 306 237 232 193 148 119 142 162 160 172 181 182 188 186 188
245 246 243 244 240 233 236 230 229 231 210 199 198 193 192 190 187 187 186 185 184 184 181 176 170 166 164 154 170 200 171 157 150 153 165 171 175 174 177 175 172 170 159 155 170 169 155 138 138 129 137 135 62 305 318 23 319 291 23 342 300 316 309 245 185 254 273 132 167 144 153 297 332 283 229 223 166 143 137 152 169 172 180 184 185 190 189 195
247 245 242 243 242 232 235 232 227 233 218 199 197 194 192 190 186 186 186 185 184 184 182 178 174 170 162 149 192 192 156 161 151 148 166 170 171 174 176 173 171 170 161 151 174 179 151 142 145 137 156 125 109 252 308 345 318 288 72 9 299 330 309 242 189 238 183 202 184 132 113 293 250 230 235 206 154 142 144 157 174 182 186 187 188 191 194 200
248 245 243 240 242 235 232 233 228 231 222 200 196 194 191 190 186 186 185 184 184 184 181 179 179 175 166 160 198 177 160 162 150 145 167 171 168 174 182 178 172 170 166 156 170 178 155 151 152 127 122 119 137 237 309 319 311 320 71 88 295 321 293 243 196 154 151 208 220 152 190 253 234 231 236 194 158 145 152 171 179 186 189 191 192 195 201 202
248 245 243 239 240 236 230 233 230 229 225 204 196 194 191 189 187 185 184 184 185 183 180 180 181 177 173 173 174 180 174 166 159 153 165 172 170 174 189 186 178 172 159 143 153 162 150 151 140 98 81 118 116 312 341 334 346 359 349 156 244 256 269 270 203 145 165 213 100 148 210 247 243 241 235 200 169 160 171 185 185 188 190 192 195 198 206 205
249 245 242 239 237 236 230 231 229 227 229 207 194 193 190 189 187 184 184 183 183 182 178 177 176 166 165 236 174 177 174 169 173 167 165 172 171 173 188 187 184 178 156 127 135 142 143 145 130 101 150 104 79 30 19 356 342 335 230 239 224 205 269 298 247 162 170 208 92 143 208 260 259 257 249 200 173 174 181 189 192 193 193 194 199 201 208 211
248 244 242 239 236 236 230 229 226 224 228 207 193 192 190 188 186 185 184 180 180 180 171 170 173 164 160 217 164 166 167 172 183 178 170 175 175 174 177 175 175 178 162 127 129 134 138 136 115 116 135 95 92 89 67 9 325 282 222 245 245 198 246 303 283 203 172 131 151 176 216 259 263 274 281 198 180 183 184 195 199 198 201 196 199 204 206 209
246 243 241 237 236 235 228 228 222 218 223 206 192 190 188 188 186 184 183 179 179 174 167 167 168 165 161 146 158 169 166 167 179 180 172 176 178 169 158 151 160 166 143 126 127 126 129 121 131 150 79 100 116 112 131 205 224 237 214 215 249 213 210 250 276 246 171 148 199 213 229 244 259 291 304 207 185 186 191 199 200 199 206 202 203 209 206 208
245 240 238 234 235 234 227 226 219 214 217 202 191 189 187 186 183 178 173 169 167 163 163 166 159 167 229 180 159 159 161 161 171 176 172 173 172 164 158 144 151 145 120 121 131 127 114 92 146 138 103 146 144 154 180 198 186 191 188 185 238 248 226 227 240 209 168 172 205 200 231 253 263 283 285 231 190 193 203 199 197 201 205 207 207 211 212 211
247 240 235 232 231 230 227 223 218 214 212 198 189 185 182 179 175 172 162 152 152 157 162 168 166 176 181 165 142 139 159 159 159 168 170 170 165 168 172 152 145 139 128 140 169 162 131 102 142 158 182 178 172 181 191 211 155 190 272 202 220 240 247 229 245 238 177 173 211 199 220 243 249 255 247 239 198 197 222 217 208 211 205 209 209 214 219 215
247 238 232 229 225 225 226 221 216 214 209 196 181 172 172 168 157 169 162 154 165 170 149 169 174 145 102 138 131 131 150 151 144 164 173 168 159 165 177 152 144 146 149 152 162 170 137 145 186 185 185 176 172 180 195 254 248 275 307 302 252 237 249 237 242 271 188 171 218 206 215 234 238 244 233 218 191 198 226 228 224 221 209 210 210 215 218 219
244 234 229 227 221 221 220 217 213 209 204 186 172 167 172 170 162 173 171 164 172 165 135 170 164 102 120 138 137 134 137 143 137 164 173 166 156 163 179 161 159 167 166 148 140 156 143 168 196 179 165 163 171 179 195 228 242 261 269 278 277 243 243 256 241 266 192 180 237 217 221 243 243 249 244 176 178 214 216 216 222 219 216 216 214 219 220 224
240 230 225 222 219 218 215 214 209 205 203 181 172 184 187 180 177 164 158 140 160 41 61 163 145 59 129 139 149 146 131 139 146 163 172 166 165 175 175 165 169 171 166 151 136 149 169 192 186 168 166 165 177 190 201 221 227 235 251 259 266 250 242 274 277 263 155 188 255 219 213 249 253 250 247 184 197 230 220 212 215 210 211 217 216 220 221 226
234 224 220 219 216 213 211 211 206 201 204 196 185 189 189 194 159 147 142 97 152 153 98 163 151 105 131 139 159 154 142 158 160 171 177 170 172 178 166 170 175 168 170 168 161 163 180 200 179 172 179 176 181 194 202 217 222 229 245 241 254 255 199 246 258 225 139 139 217 154 198 258 266 263 261 221 213 241 236 221 224 216 212 217 218 218 215 217
226 218 215 214 211 209 208 206 201 194 195 203 207 193 184 180 154 144 126 68 156 198 160 174 160 137 151 154 165 164 153 162 163 172 181 175 162 159 166 170 167 170 185 180 169 170 184 189 173 171 181 183 183 193 200 206 217 235 238 230 250 251 222 231 215 153 68 358 117 104 14 289 260 253 263 245 221 242 247 227 235 240 231 235 242 235 223 218
218 213 209 208 206 204 202 200 195 188 188 197 205 192 174 166 159 150 123 76 159 29 141 175 172 164 160 151 164 167 143 151 168 165 176 175 158 148 164 163 168 184 186 175 163 175 201 186 166 169 179 185 187 193 196 191 201 241 240 226 236 237 227 223 176 110 81 292 261 134 238 285 279 251 248 247 232 241 239 220 231 238 236 239 244 239 230 226
211 208 204 203 201 196 195 198 191 184 184 191 189 179 167 162 159 148 117 70 187 170 155 166 184 173 159 152 160 146 139 166 163 150 166 180 177 172 168 164 189 195 177 166 165 187 204 180 166 172 177 180 191 200 191 181 188 235 235 223 236 229 180 161 172 130 129 228 275 126 176 256 308 277 245 243 239 246 242 233 238 237 236 231 227 232 228 225
204 202 198 198 196 189 186 191 185 181 182 185 176 168 161 158 155 143 127 266 195 159 146 154 184 172 163 162 156 145 155 155 121 155 175 184 186 186 182 176 181 191 170 155 191 203 168 169 174 176 173 178 191 201 191 177 179 231 242 223 232 217 178 168 173 170 200 210 340 28 141 227 285 263 258 247 227 257 261 249 248 240 237 233 229 233 228 222
197 195 193 193 190 186 187 186 178 181 188 175 165 161 160 157 154 142 144 230 176 128 136 146 165 161 152 155 162 155 131 133 135 185 185 184 188 179 191 196 187 183 174 169 196 212 145 171 183 176 174 186 189 194 190 172 181 230 227 199 208 208 182 168 167 172 242 138 283 300 146 194 267 274 295 311 201 256 261 246 245 239 234 233 232 233 230 226
191 189 189 188 186 186 190 188 179 185 183 168 160 161 158 150 144 136 183 213 148 105 152 149 154 150 137 155 177 158 123 141 154 160 161 187 198 120 186 200 191 178 182 191 197 215 177 185 182 176 180 186 180 189 187 174 193 219 175 134 105 62 66 106 147 140 90 171 237 242 192 186 267 280 298 307 220 247 251 244 242 236 234 233 232 233 231 228
185 185 184 181 179 182 188 190 187 182 170 160 158 155 149 141 141 164 207 187 118 155 164 148 167 160 149 160 182 160 145 148 123 125 138 189 191 325 311 166 138 161 174 205 200 219 317 176 166 176 187 179 172 183 187 181 187 157 128 98 59 49 45 53 74 98 133 252 251 240 216 179 260 277 247 224 222 215 227 252 253 244 241 236 234 236 232 229
182 181 179 176 174 176 181 187 178 171 160 155 152 144 141 151 171 178 202 173 117 164 160 139 157 161 157 163 172 161 151 131 125 144 154 174 175 203 235 154 136 139 153 186 208 286 17 82 160 185 183 139 146 165 190 188 180 146 129 126 107 35 19 26 3 54 191 245 256 247 211 170 228 262 243 240 254 229 214 234 246 246 247 245 243 242 237 231
179 177 176 174 171 173 176 159 158 159 155 151 147 140 150 180 200 181 180 173 166 177 166 150 156 165 164 164 164 159 153 140 150 157 163 174 179 189 196 190 176 170 184 188 184 52 62 196 245 263 249 145 148 167 144 32 181 168 145 145 157 209 139 196 248 223 218 246 252 224 175 197 232 251 258 265 271 256 227 223 241 250 255 258 255 248 241 228
175 174 173 172 170 171 168 154 151 152 152 150 147 148 167 185 208 153 129 172 182 168 167 158 160 165 165 163 159 153 148 152 165 165 170 175 177 191 206 215 195 184 185 169 150 153 203 291 287 171 254 186 163 175 176 164 183 177 163 162 177 170 157 202 231 245 244 254 253 226 205 250 270 259 250 248 253 256 234 218 236 242 246 255 263 262 252 231
172 170 170 170 170 171 162 153 151 151 150 149 149 160 172 189 199 124 141 177 161 153 164 158 153 159 166 162 155 152 144 158 169 162 164 171 172 191 209 223 212 185 113 149 166 175 187 232 217 174 192 180 179 194 176 156 164 185 168 151 172 170 163 198 207 196 228 256 265 264 210 198 194 240 241 233 253 273 260 230 244 249 251 261 278 277 260 241
169 168 167 167 168 168 160 154 153 153 150 147 153 169 180 176 133 144 158 151 145 150 153 151 147 152 167 162 156 162 139 153 167 159 164 177 184 191 196 208 204 174 141 170 185 181 183 209 272 230 278 168 178 211 159 145 165 201 149 142 190 186 154 170 197 183 180 212 246 224 226 212 205 272 274 246 261 279 273 266 269 262 268 285 278 257 246 247
165 164 164 163 163 162 161 158 156 155 154 153 161 177 183 152 143 168 160 151 158 152 144 150 155 157 165 161 160 169 118 139 161 159 175 186 193 197 198 205 197 183 176 168 150 173 173 189 330 345 348 198 178 190 160 159 176 165 144 187 210 162 129 138 211 146 111 200 244 188 243 286 306 289 291 294 280 279 280 281 269 256 269 288 264 245 240 246
160 159 159 163 163 161 161 160 158 158 159 167 172 177 169 156 157 158 157 156 155 150 147 152 168 167 161 155 168 169 142 135 159 166 176 186 202 202 201 206 193 191 194 167 149 197 151 119 328 72 158 260 219 146 52 19 149 147 181 197 173 115 112 122 170 9 120 223 268 203 221 266 253 257 303 317 283 272 268 260 257 258 258 252 250 244 238 242
156 154 153 166 165 162 161 161 161 160 163 173 175 174 172 167 158 151 148 148 146 152 155 152 166 175 166 161 172 173 159 154 170 176 171 183 218 200 192 201 192 189 195 171 165 202 137 126 309 340 177 263 352 119 136 339 153 164 191 184 140 171 208 154 172 198 189 219 274 297 252 249 199 213 289 280 244 251 262 258 249 250 239 229 242 247 245 246
153 153 158 166 163 163 162 160 159 159 167 176 179 180 174 153 154 154 146 146 149 156 161 161 164 173 180 173 167 172 173 169 171 176 177 186 218 198 186 191 184 180 188 172 166 185 137 129 224 277 212 267 7 154 185 201 355 38 124 187 159 174 187 181 174 172 178 208 241 284 289 257 221 214 230 244 238 228 242 255 250 244 235 221 227 238 242 242
155 153 156 162 161 162 160 156 156 167 172 180 181 173 166 156 160 165 156 152 155 163 168 169 165 168 179 177 167 172 178 173 173 181 189 183 198 211 191 186 170 170 174 154 149 165 137 124 171 249 356 177 196 213 188 169 160 158 160 186 205 161 131 168 182 145 146 180 191 236 269 254 240 212 207 231 247 236 229 235 243 248 240 226 224 230 237 241
160 160 158 162 161 159 156 151 157 168 170 188 185 170 165 161 156 163 163 157 155 163 166 165 169 171 171 171 172 174 171 169 180 186 195 182 182 218 199 181 162 160 158 149 160 169 160 132 144 153 163 194 225 250 192 177 179 181 183 192 192 164 129 178 218 197 118 183 182 186 249 254 239 203 202 216 235 246 238 214 231 256 249 236 233 229 232 238
160 172 156 161 160 155 153 152 158 168 182 187 174 158 155 147 147 162 164 159 157 144 140 162 169 166 168 173 169 170 170 169 183 188 189 185 181 187 183 161 149 156 153 151 172 153 117 105 111 155 200 207 241 252 165 173 174 179 211 202 184 179 154 173 211 208 170 221 164 150 255 257 210 190 201 207 217 240 238 190 215 254 254 248 253 244 240 244
153 157 149 158 159 153 148 159 162 176 191 166 154 159 160 153 158 163 161 162 164 144 138 160 165 160 168 171 156 162 171 169 187 189 151 157 192 203 165 147 142 154 151 144 169 145 99 104 100 56 296 298 305 326 97 115 76 221 235 172 158 196 154 149 192 182 190 214 157 176 259 243 184 187 198 211 227 252 256 202 216 249 265 266 268 272 266 256
144 119 144 160 161 156 152 172 171 169 168 157 159 164 154 149 163 164 164 168 168 151 150 160 166 167 167 164 162 169 172 172 192 193 145 149 194 196 160 154 153 165 174 183 177 164 137 131 121 113 83 12 327 308 260 217 177 205 225 157 170 159 109 114 154 130 211 215 168 196 243 229 207 203 180 199 248 274 270 231 214 234 252 260 268 284 289 272
153 121 142 166 167 162 157 171 166 160 162 163 165 165 152 152 173 173 166 165 162 152 152 155 164 163 155 159 166 172 173 171 171 177 151 145 170 186 167 166 167 175 183 170 153 145 147 157 144 137 155 186 198 211 217 182 153 199 185 173 188 171 158 166 122 156 228 209 168 210 236 250 352 10 143 176 211 247 252 238 226 233 241 257 268 272 278 270
158 133 147 156 171 168 153 145 159 160 163 161 162 170 162 154 176 180 165 164 166 147 136 135 147 144 148 158 159 170 179 179 150 165 165 157 165 237 186 176 177 180 170 149 145 139 120 165 183 179 189 197 191 194 152 128 150 200 187 174 188 189 178 142 123 206 207 149 202 226 216 132 327 224 189 202 200 211 229 225 229 240 232 236 246 255 275 274
159 154 157 147 148 162 139 106 157 163 167 165 162 171 167 157 162 179 177 183 165 140 120 130 147 147 158 160 155 171 178 171 141 163 165 161 151 87 156 179 182 175 155 149 157 142 114 191 202 192 203 203 169 171 154 148 176 191 177 178 190 183 166 166 209 216 155 147 234 223 142 161 228 223 207 207 202 213 233 231 233 243 231 215 215 234 270 267
161 157 158 144 144 166 171 167 166 164 168 170 159 150 163 161 161 172 189 187 159 147 131 144 162 162 164 163 159 167 169 160 152 161 158 152 138 117 102 128 198 178 153 158 171 146 143 198 196 172 201 231 136 156 164 166 183 180 175 188 189 179 181 200 221 214 165 204 235 164 148 193 213 216 218 213 203 206 224 232 230 248 259 231 168 187 224 237
133 129 149 117 114 160 163 167 165 162 167 171 161 153 165 168 169 174 165 143 161 161 149 156 171 168 165 165 158 157 169 170 168 173 167 154 153 145 135 140 243 247 142 157 178 172 165 195 164 135 173 262 112 158 173 169 165 169 187 195 187 189 198 209 221 214 199 228 238 186 203 222 203 205 223 225 207 173 157 132 123 220 245 198 170 202 221 227
129 142 155 126 99 117 109 142 157 157 166 174 174 173 172 171 170 170 161 158 164 170 164 163 169 169 166 166 161 168 182 177 164 165 155 144 154 158 154 169 165 121 131 150 171 220 167 189 154 115 136 260 123 139 160 155 153 170 194 200 196 202 209 215 221 211 211 240 246 251 266 260 211 195 217 230 192 100 95 237 204 233 231 173 182 219 225 228
102 184 155 129 126 125 123 141 154 156 169 182 184 180 175 176 172 159 146 168 160 165 171 163 161 161 162 167 171 177 180 170 159 162 158 155 168 176 170 171 150 135 139 151 155 131 119 156 69 102 145 242 192 124 107 80 99 166 214 211 206 207 212 219 220 200 212 232 234 244 261 255 193 176 196 211 176 154 220 235 228 244 231 179 200 223 225 231
4 106 113 105 107 129 142 148 155 168 180 185 183 178 173 177 171 152 134 33 136 148 145 144 147 148 157 174 184 180 170 161 157 162 158 153 159 159 150 157 156 153 160 163 158 147 140 147 134 133 171 242 168 132 122 89 91 243 236 212 204 207 211 218 222 216 219 221 214 227 237 212 145 162 165 177 189 194 218 226 223 239 229 201 215 223 227 236